Погода в Весёлом

Россия / Республика Калмыкия     46°06′41″N   42°20′56″E
темп.,
°C
ветер,
м/с
пор.,
м/с
влажн.,
%
обл.,
%
осадки,
мм/ч
давл.,
гПа
погр.,
м
17 июня, чт
чт1700:00+21в47693 0.1 1006116
03:00+20всв4127385 0.1 1006258
06:00+21с137877 0.4 100692
09:00+23юв1172100 1.9 1007242
12:00+21зсз6987100 1.8 1010364
15:00+20зсз81583100 7.0 1011663
18:00+23зсз81466100 0.6 1011587
21:00+20зюз5978100 1.9 1016253
18 июня, пт
пт1800:00+18зсз51290100 0.6 1015384
03:00+17зсз511940 0.6 1016281
06:00+18зсз6109447 0.0 1015363
09:00+21сз568499 0.0 1015652
12:00+25сз346455 0.1 10151150
15:00+27ссз23553 0.1 10141357
18:00+26ссз33660 0.0 1014522
21:00+21сз22810 0.0 101611
19 июня, сб
сб1900:00+20св11830 0.0 101611
03:00+20всв22860 0.0 101628
06:00+22в615700 0.0 1016557
09:00+25в813480 0.0 1017922
12:00+29в9133769 0.0 10161672
15:00+31в91538100 0.0 10142098
18:00+29в714445 0.0 1013482
21:00+25в717415 0.0 1015604
20 июня, вс
вс2000:00+22в718445 0.0 1014596
03:00+21в719435 0.0 1014567
06:00+20в7184741 0.0 1014509
09:00+26в7154281 0.0 1013865
12:00+32в8143378 0.0 10121558
15:00+35вюв914320 0.0 10102274
18:00+30вюв915392 0.0 1011788
21:00+26вюв716345 0.0 1013618
21 июня, пн
пн2100:00+23в616365 0.0 1013475
03:00+20в515405 0.0 1013379
06:00+20в515542 0.0 1012361
09:00+27вюв814420 0.0 1012916
12:00+33вюв914280 0.0 10101784
15:00+35в913250 0.0 10092201
18:00+30вюв81529100 0.0 1010458
21:00+26вюв616274 0.0 1012409